www.pogodaiklimat.ru

Архив погоды в Оймяконе (Якутия, Россия)

Время
(UTC), дата
06 16.10
09 16.10
12 16.10
15 16.10
18 16.10
21 16.10
00 17.10
03 17.10
06 17.10
09 17.10
12 17.10
15 17.10
18 17.10
21 17.10
00 18.10
03 18.10
06 18.10
09 18.10
12 18.10
15 18.10
18 18.10
21 18.10
00 19.10
03 19.10
06 19.10
09 19.10
12 19.10
15 19.10
18 19.10
21 19.10
00 20.10
03 20.10
06 20.10
09 20.10
12 20.10
15 20.10
18 20.10
21 20.10
00 21.10
03 21.10
06 21.10
09 21.10
12 21.10
15 21.10
18 21.10
21 21.10
00 22.10
03 22.10
06 22.10
09 22.10
12 22.10
15 22.10
18 22.10
21 22.10
00 23.10
Ветер
(напр.,м/с)
Видим. Явления Облачность Т
(С)
Тd
(С)
f
(%)
Тe
(С)
Тes
(С)
Комфортность P
(гПа)
Po
(гПа)
Тmin
(С)
Tmax
(С)
R
(мм)
R24
(мм)
S
(см)
СЗ 1 50 км 10/3 1000 м
[Cb cap Ac lent Cs]
-8.8 -14.8 62 -11 -11 по сезону 1018.4 926.1
СВ 2 50 км 10/3 1000 м
[Sc Ac lent Cs]
-13.6 -17.9 70 -18 -18 прохладно 1021.0 926.8 -7.3 0.0
З 1 50 км 10/1 1500 м
[Sc Ac trans Cs]
-20.7 -23.2 80 -24 -24 холодно 1023.7 926.8
штиль 0 50 км 10/10 1260 м
[Sc]
-20.2 -22.8 80 -20 -20 по сезону 1023.6 926.9
штиль 0 50 км 10/10 1500 м
[Sc]
-18.3 -20.2 85 -18 -18 по сезону 1023.1 927.2
штиль 0 50 км 10/10 1500 м
[Sc]
-17.1 -19.0 85 -17 -17 по сезону 1023.1 927.5 -22.6 0.0 1
штиль 0 50 км 8/3 1500 м
[Sc Ac trans]
-15.6 -17.5 85 -16 -15 по сезону 1023.0 927.9
СВ 1 50 км 9/8 1300 м
[Cb cap Ac trans]
-11.6 -17.8 60 -14 -14 по сезону 1020.9 927.4
В 1 50 км осадки на расстоянии 9/9 1500 м
[Cb cap]
-11.4 -21.0 45 -14 -14 прохладно 1020.9 927.4
СВ 2 50 км 10/6 1000 м
[Cb cap Ac trans]
-13.7 -18.9 65 -18 -18 прохладно 1021.9 927.6 -11.0 0.0
З 1 50 км 10/3 1500 м
[Sc Ac und]
-15.4 -18.8 75 -18 -18 по сезону 1022.3 927.3
Ю 1 50 км 10/5 1500 м
[Sc Ac trans]
-16.2 -19.6 75 -19 -19 по сезону 1021.1 926.0
СЗ 1 50 км 10/8 1500 м
[Sc Ac trans]
-18.5 -21.1 80 -21 -21 прохладно 1020.4 924.5
З 1 50 км 6/3 1500 м
[Sc Ci fib]
-25.4 -27.8 80 -29 -29 очень
холодно
1022.6 924.0 -25.5 0.0 1
штиль 0 50 км осадки на расстоянии 9/9 1500 м
[Cb cap]
-18.6 -21.2 80 -19 -19 холодно 1018.6 922.9 -26.5
С 5 50 км осадки на расстоянии 9/8 1500 м
[Cb cap Ac trans]
-12.4 -20.7 50 -20 -20 очень
холодно
1014.1 920.9
С 4 50 км осадки на расстоянии 9/8 1000 м
[Cb cap Ac trans]
-13.2 -21.4 50 -21 -21 очень
холодно
1013.7 920.4
С 3 50 км 8/8 1500 м
[Cb cap]
-14.7 -21.7 55 -21 -21 очень
холодно
1014.6 920.6 -11.8 0.0
ЮЗ 2 50 км 3/3 1500 м
[Sc]
-19.8 -24.7 65 -26 -26 очень
холодно
1016.4 920.5
З 2 50 км 3/3 1500 м
[Sc]
-22.0 -25.2 75 -28 -28 очень
холодно
1016.2 920.2
ЮЗ 1 н/о н/о -29.5 -32.5 75 -34 -34 опасность
обморожения
1019.7 920.4
штиль 0 50 км 1/1 1500 м
[Sc]
-31.3 -33.6 80 -31 -31 опасность
обморожения
1021.9 921.0 -31.5 0.0 1
С 1 50 км ясно -23.2 -26.4 75 -27 -26 очень
холодно
1018.6 921.3
СВ 1 50 км 1/0 -15.6 -20.7 65 -18 -17 очень
холодно
1014.5 920.3
штиль 0 50 км ясно -15.6 -22.6 55 -16 -15 очень
холодно
1014.3 920.1
З 2 50 км ясно -25.2 -28.4 75 -32 -32 опасность
обморожения
1019.0 920.9 -13.2 0.0
штиль 0 50 км ясно -28.3 -30.6 81 -28 -28 очень
холодно
1021.2 921.5
штиль 0 50 км ясно -29.6 -31.9 80 -30 -30 очень
холодно
1021.8 921.7
штиль 0 50 км ясно -32.0 -34.3 80 -32 -32 опасность
обморожения
1023.2 922.0
З 1 50 км 8/0
[Ci fib]
-32.0 -34.3 80 -36 -36 опасность
обморожения
1024.0 922.7 -32.7 0.0 1
В 1 50 км 1/0
[Ci fib]
-24.3 -27.5 75 -28 -27 холодно 1020.7 922.8
С 1 50 км 4/0
[Ci fib]
-19.1 -23.2 70 -22 -21 по сезону 1017.6 921.8
СВ 1 50 км 6/0
[Ci fib]
-16.7 -22.6 60 -19 -19 по сезону 1015.6 920.9
З 1 50 км 8/0
[Ac trans Ci fib]
-24.5 -27.7 75 -28 -28 холодно 1018.9 921.0 -16.2 0.0
З 1 50 км 8/0
[Ci fib]
-26.3 -28.7 80 -30 -30 холодно 1018.7 920.3
штиль 0 20 км слаб. снег 10/0
[Cs]
-27.8 -30.3 79 -28 -28 прохладно 1019.0 920.0
штиль 0 20 км слаб. снег 10/0
[Cs]
-26.5 -29.0 79 -27 -27 по сезону 1018.5 919.9
штиль 0 10 км слаб. снег 10/0
[Ac lent Cs]
-24.6 -27.0 80 -25 -25 по сезону 1017.7 919.9 -28.1 0.2 1
штиль 0 50 км слаб. снег 5/0
[Ac trans Cc]
-20.6 -23.9 75 -21 -20 по сезону 1016.3 920.1
ЮЗ 1 50 км слаб. снег 8/0
[Ac trans Ci fib]
-15.1 -20.2 65 -18 -17 по сезону 1013.4 919.4
штиль 0 50 км слаб. снег 10/0
[Ac und]
-14.8 -19.9 65 -15 -15 по сезону 1013.2 919.4
СВ 1 50 км слаб. снег 10/5 1500 м
[Sc Ac und]
-15.8 -19.2 75 -18 -18 по сезону 1014.0 919.8 -14.0 0.2
СВ 1 10 км слаб. снег 10/8 1000 м
[Sc As op]
-15.5 -18.2 80 -18 -18 по сезону 1013.1 919.4
СВ 2 20 км слаб. снег 10/8 1000 м
[Sc Ac As]
-15.6 -17.5 85 -21 -21 по сезону 1012.8 918.7
СВ 2 20 км слаб. снег 10/8 1000 м
[Sc Ac As]
-15.7 -17.6 85 -21 -21 по сезону 1011.6 917.6
С 2 50 км слаб. снег 10/8 1000 м
[Sc Ac As]
-15.5 -17.4 85 -21 -21 по сезону 1009.7 915.9 -15.7 0.4 2
СВ 2 4000 м слаб. снег 10/5 1000 м
[Sc Ac As Cs]
-14.6 -16.6 85 -20 -19 по сезону 1007.6 914.3
ЮВ 1 50 км осадки на расстоянии {снег} 10/4 1000 м
[Sc Cs]
-11.4 -14.2 80 -14 -13 по сезону 1003.5 911.7
штиль 0 20 км слаб. снег 10/3 1000 м
[Sc Ac As Cs]
-10.0 -12.8 80 -10 -10 по сезону 1001.5 910.3
штиль 0 10 км слаб. снег 10/3 1000 м
[Sc Ac As Cs]
-12.2 -14.2 85 -12 -12 тепло 1002.5 910.5 -9.4 0.3
З 2 50 км слаб. снег 10/1 1000 м
[Sc Cs]
-16.9 -18.1 90 -22 -22 по сезону 1005.1 911.2
штиль 0 4000 м слаб. снег 10/0
[Ac trans Cs]
-16.6 -17.9 90 -17 -17 по сезону 1005.9 912.1
штиль 0 20 км слаб. снег 10/3 1500 м
[Sc Ac trans Cs]
-14.6 -15.9 90 -15 -15 тепло 1006.6 913.4
штиль 0 4000 м слаб. снег 10/8 1000 м
[Sc Ac As Cs]
-17.4 -18.6 90 -17 -17 по сезону 1009.3 914.8 -18.4 0.7 3
штиль 0 10 км слаб. снег 10/4 1000 м
[Sc Ac trans Cs]
-14.9 -16.2 90 -15 -15 по сезону 1009.4 915.9
Местоположение метеостанции Оймякон (Якутия, Россия): широта 63.25 долгота 143.10 высота над уровнем моря 740 м.
В архиве по умолчанию представлена погода в Оймяконе за последнюю неделю. Архивные данные за месяц целиком и за предыдущие месяцы, начиная с января 2011 года, Вы можете получить, выбрав интересующий диапазон дат из раскрывающегося списка и нажав кнопку "Найти!".
*Определитесь, кто Вы:
Внимание! Время в таблицах - всемирное. Для получения местного времени необходимо прибавить поправку, которая равна 10 ч.
Смотрите также архив погоды в соседних городах и на ближайших метеорологических станциях:
Партнеры нашего сайта:      
Пояснения к столбцам:
  • Ветер - указаны скорость ветра в м/с - средняя за 10 мин, порывы в срок и между сроками (в фигурных скобках) и направление, откуда дует ветер: С - северный,
  • СВ - северо-восточный, В - восточный, ЮВ - юго-восточный, Ю - южный, ЮЗ - юго-западный, З - западный, СЗ - северо-западный.
  • Видимость - горизонтальная дальность видимости в метрах или километрах. При видимости от 1 до 10 км при отсутствии осадков обычно наблюдается дымка, при ухудшении видимости до 1 км и менее - туман. В сухую погоду видимость может ухудшаться дымом, пылью или мглою.
  • Явления - указаны атмосферные явления, наблюдавшиеся в срок или в последний час перед сроком; фигурными скобками обозначены явления, наблюдавшиеся между сроками (за 1-3 часа до срока); квадратными скобками обозначены град или гололедные отложения с указанием их диаметра в мм.
  • Облачность - указаны через наклонную черту общая и нижняя облачность в баллах и высота нижней границы облаков в метрах; квадратными скобками обозначены формы облаков: Ci - перистые, Cs - перисто-слоистые, Cc - перисто-кучевые, Ac - высококучевые, As - высокослоистые, Sc - слоисто-кучевые, Ns - слоисто-дождевые, Cu - кучевые, Cb - кучево-дождевые. Подробнее классификацию облаков см. в Атласе облаков (PDF).
  • T - Температура воздуха - температура, измеренная на высоте 2 м над землей.
  • Td - Температура точки росы - температура, при понижении до которой содержащийся в воздухе водяной пар достигнет насыщения.
  • f - Относительная влажность воздуха - влажноcть воздуха, измеренная на высоте 2 м над землей.
  • Te - Эффективная температура - температура, которую ощущает одетый по сезону человек в тени. Характеристика душности погоды. При расчете учитывается влияние влажности воздуха и скорости ветра на теплоощущения человека.
  • Tes - Эффективная температура на солнце - температура, которую ощущает человек, с поправкой на солнечный нагрев. Характеристика знойности погоды. Зависит от высоты солнца над горизонтом, облачности и скорости ветра. Ночью, в пасмурную погоду, а также при ветре 12 м/с и более поправка равна нулю.
  • P - Атмосферное давление - приведенное к уровню моря атмосферное давление.
  • Po - Атмосферное давление - измеренное на уровне метеостанции атмосферное давление.
  • Tmin - Минимальная температура - минимум температуры воздуха на высоте 2 м над землей.
  • Tmax - Максимальная температура - максимум температуры воздуха на высоте 2 м над землей.
  • R - Количество осадков - Количество выпавших осадков за период времени, мм. При наведении курсора мыши на число - период времени, за который выпало указанное количество осадков.
  • R24 - Количество осадков - Количество выпавших осадков за 24 часа, мм.
  • S - Снежный покров - Высота снежного покрова, см. При наведении курсора мыши на число - состояние снежного покрова и степень покрытия местности в баллах.